Flag for U.S.A. Weather past 2 weeks in Vincennes, Indiana, U.S.A.

Now
25 °F

Ice fog.


Feels Like: 18 °F
Forecast: 25 / 36 °F
Wind: 6 mph from North

Location: Lawrenceville-Vincennes International Airport

Current Time: Dec 19, 2014 at 6:11:25 AM

Latest Report: Dec 19, 2014 at 5:53 AM


Visibility: 6 mi

Pressure: 30.33 "Hg

Humidity: 88%

Dew point: 22 °F

Location of VincennesLocation

Historic Weather in Vincennes — Graph

°F

Vincennes temperature yesterday

Maximum temperature yesterday: 32 °F (at 3:53 PM)
Minimum temperature yesterday: 26 °F (at 12:53 AM)
Average temperature yesterday: 29 °F

Past Weeks' High & Low Weather Summary

 TemperatureHumidityPressure
High51 °F (Dec 15, 11:53 PM)100% (Dec 5, 2:53 AM)30.60 "Hg (Dec 5, 2:53 AM)
Low22 °F (Dec 12, 5:53 AM)65% (Dec 7, 3:53 PM)29.70 "Hg (Dec 16, 12:53 AM)
Average38 °F86%30.25 "Hg
* Reported Dec 4 4:53 AM — Dec 19 4:53 AM, Vincennes, Weather by CustomWeather, © 2014

Note: Actual official high and low records may vary slightly from our data, if they occured in-between our weather recording intervals... More about our weather records

Advertising

Vincennes weather history for previous 24 hours

 ConditionsComfort  
Time TempWeatherWind HumidityBarometerVisibility
4:53 AM
Dec 19
26 °FIce fog.5 mph88%30.31 "Hg6 mi
3:53 AM26 °FClear.5 mph88%30.31 "Hg7 mi
2:53 AM27 °FPassing clouds.5 mph89%30.31 "Hg7 mi
1:53 AM28 °FPassing clouds.3 mph85%30.30 "Hg7 mi
12:53 AM30 °FOvercast.3 mph79%30.30 "Hg8 mi
11:53 PM
Dec 18
31 °FOvercast.3 mph76%30.31 "Hg9 mi
10:53 PM31 °FOvercast.3 mph76%30.30 "Hg9 mi
9:53 PM31 °FOvercast.No wind79%30.29 "Hg9 mi
8:53 PM31 °FOvercast.3 mph79%30.29 "Hg9 mi
7:53 PM31 °FOvercast.6 mph76%30.29 "Hg9 mi
6:53 PM31 °FOvercast.6 mph76%30.28 "Hg9 mi
5:53 PM31 °FOvercast.No wind76%30.27 "Hg9 mi
4:53 PM32 °FMore clouds than sun.No wind69%30.27 "Hg8 mi
3:53 PM32 °FCloudy.3 mph69%30.26 "Hg7 mi
2:53 PM31 °FMostly cloudy.No wind73%30.26 "Hg6 mi
1:53 PM31 °FOvercast.5 mph73%30.28 "Hg6 mi
12:53 PM30 °FOvercast.5 mph75%30.30 "Hg6 mi
11:53 AM29 °FMostly cloudy.No wind79%30.33 "Hg5 mi
10:53 AM29 °FMostly cloudy.5 mph75%30.34 "Hg5 mi
9:53 AM28 °FOvercast.No wind78%30.35 "Hg5 mi
8:53 AM27 °FMostly cloudy.5 mph81%30.33 "Hg5 mi
8:02 AM27 °FMostly cloudy.5 mph81%30.32 "Hg6 mi
7:53 AM27 °FMostly cloudy.6 mph81%30.32 "Hg6 mi
6:53 AM26 °FPassing clouds.3 mph81%30.32 "Hg6 mi
Weather by CustomWeather, © 2014

See weather overviewHow to use our weather pages